When you browse on this site, cookies collect data to enhance your experience and personalize the content and advertising you see.
Visit our Privacy Policy to learn more. By continuing to use the site, you agree to this use of cookies and data.
  • In United Kingdom
  • List of Countries
  • For 7 days
  • Water Temperature
  • Satellite Maps
  • Weather Map
  • Weather Widgets
  • user-avatar
    Login

    Hourly Weather Yurkino

    Today, 23 January, Wednesday

    Time Temperature Precipitation Wind Pressure Humidity
    00:00 -21°C° 0 mm 2 mps 754 mmHg 96%
    01:00 -23°C° 0 mm 2 mps 754 mmHg 97%
    02:00 -23°C° 0 mm 2 mps 755 mmHg 97%
    03:00 -24°C° 0 mm 2 mps 755 mmHg 97%
    04:00 -24°C° 0 mm 2 mps 755 mmHg 98%
    05:00 -25°C° 0 mm 2 mps 755 mmHg 98%
    06:00 -25°C° 0 mm 2 mps 756 mmHg 98%
    07:00 -25°C° 0 mm 2 mps 756 mmHg 98%
    08:00 -24°C° 0 mm 2 mps 756 mmHg 97%
    09:00 -24°C° 0 mm 2 mps 757 mmHg 97%
    10:00 -21°C° 0.1 mm 2 mps 757 mmHg 96%
    11:00 -20°C° 0.1 mm 2 mps 758 mmHg 94%
    12:00 -18°C° 0.1 mm 2 mps 758 mmHg 92%
    13:00 -18°C° 0 mm 2 mps 758 mmHg 92%
    14:00 -17°C° 0 mm 2 mps 758 mmHg 92%
    15:00 -17°C° 0 mm 2 mps 759 mmHg 92%
    16:00 -18°C° 0 mm 2 mps 759 mmHg 94%
    17:00 -19°C° 0 mm 2 mps 759 mmHg 96%
    18:00 -21°C° 0 mm 2 mps 760 mmHg 98%
    19:00 -21°C° 0 mm 2 mps 760 mmHg 98%
    20:00 -23°C° 0 mm 2 mps 760 mmHg 98%
    21:00 -23°C° 0 mm 2 mps 760 mmHg 98%
    22:00 -23°C° 0 mm 2 mps 761 mmHg 98%
    23:00 -24°C° 0 mm 2 mps 761 mmHg 97%

    Tomorrow, 24 January, Thursday

    Time Temperature Precipitation Wind Pressure Humidity
    00:00 -24°C° 0 mm 2 mps 761 mmHg 97%
    01:00 -23°C° 0 mm 2 mps 761 mmHg 96%
    02:00 -23°C° 0 mm 2 mps 761 mmHg 95%
    03:00 -23°C° 0 mm 2 mps 761 mmHg 94%
    04:00 -23°C° 0 mm 2 mps 761 mmHg 93%
    05:00 -21°C° 0 mm 2 mps 760 mmHg 91%
    06:00 -21°C° 0 mm 2 mps 760 mmHg 90%
    07:00 -23°C° 0 mm 3 mps 760 mmHg 89%
    08:00 -23°C° 0 mm 3 mps 760 mmHg 88%
    09:00 -23°C° 0 mm 3 mps 760 mmHg 87%
    10:00 -21°C° 0 mm 3 mps 759 mmHg 86%
    11:00 -19°C° 0 mm 3 mps 759 mmHg 84%
    12:00 -18°C° 0 mm 3 mps 759 mmHg 83%
    13:00 -17°C° 0 mm 3 mps 758 mmHg 86%
    14:00 -17°C° 0 mm 3 mps 758 mmHg 88%
    15:00 -16°C° 0 mm 3 mps 757 mmHg 91%
    16:00 -16°C° 0.1 mm 3 mps 757 mmHg 92%
    17:00 -16°C° 0.1 mm 3 mps 757 mmHg 93%
    18:00 -15°C° 0.1 mm 3 mps 756 mmHg 94%
    19:00 -15°C° 0.1 mm 3 mps 756 mmHg 94%
    20:00 -15°C° 0.1 mm 3 mps 756 mmHg 94%
    21:00 -15°C° 0.1 mm 3 mps 755 mmHg 94%
    22:00 -15°C° 0.1 mm 2 mps 755 mmHg 95%
    23:00 -15°C° 0.1 mm 2 mps 755 mmHg 95%

    Day after tomorrow, 25 January, Friday

    Time Temperature Precipitation Wind Pressure Humidity
    00:00 -15°C° 0.1 mm 2 mps 755 mmHg 96%
    01:00 -16°C° 0 mm 2 mps 755 mmHg 96%
    02:00 -16°C° 0 mm 2 mps 755 mmHg 96%
    03:00 -17°C° 0 mm 2 mps 755 mmHg 96%
    04:00 -18°C° 0 mm 2 mps 755 mmHg 97%
    05:00 -18°C° 0 mm 2 mps 756 mmHg 97%
    06:00 -19°C° 0 mm 2 mps 756 mmHg 98%
    07:00 -20°C° 0 mm 2 mps 756 mmHg 98%
    08:00 -21°C° 0 mm 2 mps 757 mmHg 98%
    09:00 -21°C° 0 mm 2 mps 758 mmHg 98%
    10:00 -20°C° 0 mm 2 mps 758 mmHg 96%
    11:00 -19°C° 0 mm 2 mps 759 mmHg 95%
    12:00 -17°C° 0 mm 2 mps 759 mmHg 93%
    13:00 -17°C° 0 mm 2 mps 759 mmHg 93%
    14:00 -17°C° 0 mm 2 mps 760 mmHg 94%
    15:00 -15°C° 0 mm 1 mps 760 mmHg 94%
    16:00 -17°C° 0 mm 1 mps 761 mmHg 95%
    17:00 -18°C° 0 mm 1 mps 761 mmHg 97%
    18:00 -19°C° 0 mm 1 mps 761 mmHg 98%
    19:00 -20°C° 0 mm 1 mps 762 mmHg 98%
    20:00 -20°C° 0 mm 1 mps 762 mmHg 98%
    21:00 -21°C° 0 mm 1 mps 762 mmHg 99%
    22:00 -21°C° 0 mm 1 mps 762 mmHg 99%
    23:00 -22°C° 0 mm 1 mps 763 mmHg 99%

    26 January, Saturday

    Time Temperature Precipitation Wind Pressure Humidity
    00:00 -22°C° 0 mm 1 mps 763 mmHg 99%
    01:00 -22°C° 0 mm 1 mps 763 mmHg 99%
    02:00 -22°C° 0 mm 1 mps 763 mmHg 99%
    03:00 -22°C° 0 mm 1 mps 763 mmHg 99%
    04:00 -23°C° 0 mm 1 mps 763 mmHg 99%
    05:00 -23°C° 0 mm 1 mps 763 mmHg 99%
    06:00 -23°C° 0 mm 1 mps 763 mmHg 99%
    07:00 -24°C° 0 mm 0 mps 764 mmHg 99%
    08:00 -24°C° 0 mm 0 mps 764 mmHg 99%
    09:00 -24°C° 0 mm 0 mps 764 mmHg 99%
    10:00 -22°C° 0 mm 0 mps 764 mmHg 96%
    11:00 -20°C° 0 mm 0 mps 764 mmHg 94%
    12:00 -19°C° 0 mm 0 mps 765 mmHg 92%
    13:00 -19°C° 0 mm 0 mps 764 mmHg 93%
    14:00 -19°C° 0 mm 0 mps 764 mmHg 94%
    15:00 -19°C° 0 mm 1 mps 764 mmHg 95%
    16:00 -20°C° 0 mm 1 mps 764 mmHg 96%
    17:00 -21°C° 0 mm 1 mps 764 mmHg 97%
    18:00 -22°C° 0 mm 1 mps 764 mmHg 97%
    19:00 -22°C° 0 mm 1 mps 764 mmHg 97%
    20:00 -22°C° 0 mm 1 mps 764 mmHg 97%
    21:00 -22°C° 0 mm 1 mps 764 mmHg 96%
    22:00 -26°C° 0 mm 2 mps 764 mmHg 96%
    23:00 -26°C° 0 mm 2 mps 764 mmHg 96%

    27 January, Sunday

    Time Temperature Precipitation Wind Pressure Humidity
    00:00 -26°C° 0 mm 2 mps 764 mmHg 95%
    01:00 -25°C° 0 mm 2 mps 764 mmHg 94%
    02:00 -25°C° 0 mm 2 mps 763 mmHg 93%
    03:00 -24°C° 0 mm 2 mps 763 mmHg 91%
    04:00 -25°C° 0 mm 3 mps 763 mmHg 90%
    05:00 -25°C° 0 mm 3 mps 763 mmHg 89%
    06:00 -25°C° 0 mm 3 mps 763 mmHg 88%
    07:00 -24°C° 0 mm 3 mps 763 mmHg 88%
    08:00 -24°C° 0 mm 3 mps 763 mmHg 88%
    09:00 -23°C° 0 mm 3 mps 763 mmHg 87%
    10:00 -23°C° 0 mm 3 mps 763 mmHg 88%
    11:00 -23°C° 0 mm 4 mps 762 mmHg 89%
    12:00 -22°C° 0 mm 4 mps 762 mmHg 89%
    13:00 -22°C° 0.1 mm 4 mps 762 mmHg 90%
    14:00 -22°C° 0.1 mm 4 mps 762 mmHg 91%
    15:00 -20°C° 0.1 mm 4 mps 762 mmHg 91%
    16:00 -22°C° 0.2 mm 4 mps 761 mmHg 92%
    17:00 -22°C° 0.2 mm 4 mps 761 mmHg 92%
    18:00 -23°C° 0.2 mm 4 mps 761 mmHg 92%
    19:00 -23°C° 0.2 mm 4 mps 761 mmHg 92%
    20:00 -23°C° 0.2 mm 4 mps 761 mmHg 92%
    21:00 -23°C° 0.2 mm 4 mps 760 mmHg 92%
    22:00 -23°C° 0.2 mm 4 mps 760 mmHg 93%
    23:00 -23°C° 0.2 mm 4 mps 760 mmHg 93%

    28 January, Monday

    Time Temperature Precipitation Wind Pressure Humidity
    00:00 -23°C° 0.2 mm 4 mps 760 mmHg 93%
    01:00 -23°C° 0.3 mm 4 mps 760 mmHg 93%
    02:00 -23°C° 0.3 mm 4 mps 759 mmHg 93%
    03:00 -24°C° 0.3 mm 4 mps 759 mmHg 94%
    04:00 -24°C° 0.3 mm 4 mps 759 mmHg 94%
    05:00 -24°C° 0.3 mm 4 mps 758 mmHg 94%
    06:00 -24°C° 0.3 mm 4 mps 758 mmHg 94%
    07:00 -23°C° 0.2 mm 3 mps 758 mmHg 94%
    08:00 -23°C° 0.2 mm 3 mps 758 mmHg 94%
    09:00 -23°C° 0.2 mm 3 mps 758 mmHg 93%
    10:00 -22°C° 0.2 mm 3 mps 757 mmHg 93%
    11:00 -22°C° 0.2 mm 3 mps 757 mmHg 92%
    12:00 -21°C° 0.2 mm 3 mps 757 mmHg 92%
    13:00 -21°C° 0.2 mm 3 mps 757 mmHg 92%
    14:00 -21°C° 0.2 mm 3 mps 756 mmHg 92%
    15:00 -19°C° 0.2 mm 2 mps 756 mmHg 93%
    16:00 -19°C° 0.2 mm 2 mps 756 mmHg 93%
    17:00 -19°C° 0.2 mm 2 mps 756 mmHg 94%
    18:00 -19°C° 0.2 mm 2 mps 756 mmHg 95%
    19:00 -19°C° 0.1 mm 2 mps 755 mmHg 95%
    20:00 -19°C° 0.1 mm 2 mps 755 mmHg 95%
    21:00 -19°C° 0.1 mm 2 mps 755 mmHg 96%
    22:00 -19°C° 0.1 mm 2 mps 755 mmHg 96%
    23:00 -20°C° 0.1 mm 2 mps 754 mmHg 96%
    Show more